TimeAKST,TemperatureF,Dew PointF,Humidity,Sea Level PressureIn,VisibilityMPH,Wind Direction,Wind SpeedMPH,Gust SpeedMPH,PrecipitationIn,Events,Conditions,WindDirDegrees,DateUTC
12:53 AM,35.1,24.1,64,29.44,10.0,North,11.5,-,N/A,,Overcast,360,2013-02-26 09:53:00
1:53 AM,34.0,24.1,67,29.43,10.0,North,16.1,-,N/A,,Overcast,360,2013-02-26 10:53:00
3:53 AM,30.9,21.9,69,29.41,10.0,North,16.1,24.2,N/A,,Overcast,360,2013-02-26 12:53:00
4:53 AM,30.0,21.0,69,29.39,10.0,North,17.3,26.5,N/A,,Overcast,360,2013-02-26 13:53:00
5:53 AM,30.0,19.9,66,29.38,10.0,North,17.3,27.6,N/A,,Overcast,360,2013-02-26 14:53:00
6:53 AM,28.9,19.9,69,29.37,10.0,North,15.0,-,N/A,,Overcast,10,2013-02-26 15:53:00
7:53 AM,28.9,19.0,67,29.36,10.0,North,16.1,25.3,N/A,,Overcast,360,2013-02-26 16:53:00
8:53 AM,28.9,19.0,67,29.34,10.0,North,16.1,23.0,N/A,,Overcast,10,2013-02-26 17:53:00
9:53 AM,30.0,19.0,64,29.34,10.0,North,12.7,20.7,N/A,,Overcast,10,2013-02-26 18:53:00
10:53 AM,30.9,19.9,64,29.34,10.0,North,9.2,-,N/A,,Overcast,10,2013-02-26 19:53:00
11:53 AM,32.0,21.0,64,29.33,10.0,North,10.4,-,N/A,,Overcast,10,2013-02-26 20:53:00
12:53 PM,33.1,21.9,64,29.32,10.0,North,10.4,-,N/A,,Overcast,360,2013-02-26 21:53:00
1:53 PM,35.1,23.0,61,29.31,10.0,North,12.7,-,N/A,,Overcast,360,2013-02-26 22:53:00
2:53 PM,35.1,23.0,61,29.29,10.0,North,8.1,-,N/A,,Overcast,350,2013-02-26 23:53:00
3:53 PM,37.0,23.0,57,29.27,10.0,North,6.9,-,N/A,,Overcast,350,2013-02-27 00:53:00
4:53 PM,37.9,24.1,57,29.25,10.0,North,6.9,-,N/A,,Overcast,350,2013-02-27 01:53:00
5:53 PM,35.1,23.0,61,29.24,10.0,NE,4.6,-,N/A,,Partly Cloudy,40,2013-02-27 02:53:00
6:53 PM,33.1,23.0,66,29.22,10.0,NNE,8.1,-,N/A,,Partly Cloudy,20,2013-02-27 03:53:00
7:53 PM,32.0,24.1,73,29.19,10.0,NNE,10.4,-,N/A,,Clear,30,2013-02-27 04:53:00
8:53 PM,30.0,21.0,69,29.18,10.0,North,8.1,-,N/A,,Scattered Clouds,350,2013-02-27 05:53:00
9:53 PM,30.9,21.9,69,29.18,10.0,NNW,4.6,-,N/A,,Partly Cloudy,340,2013-02-27 06:53:00
10:53 PM,33.1,21.9,64,29.18,10.0,North,9.2,-,N/A,,Partly Cloudy,10,2013-02-27 07:53:00
11:53 PM,35.1,25.0,67,29.19,10.0,ENE,10.4,-,N/A,,Overcast,70,2013-02-27 08:53:00